Weather History for Monroe, MI

Change the Weather History Date:

Monday, November 4, 2013

  Actual Average Record
Temperature  
Mean Temperature 44 °F -  
Max Temperature 48 °F 54 °F 78 °F (2003)
Min Temperature 39 °F 36 °F 18 °F (1951)
Degree Days  
Heating Degree Days 22    
Moisture  
Dew Point 32 °F    
Average Humidity 63    
Maximum Humidity 81    
Minimum Humidity 43    
Precipitation  
Precipitation 0.00 in - - ()
Sea Level Pressure  
Sea Level Pressure 30.39 in    
Wind  
Wind Speed 9 mph (SE)    
Max Wind Speed 14 mph    
Max Gust Speed 18 mph    
Visibility 10 miles    
Events      
Averages and records for this station are not official NWS values.
T = Trace of Precipitation, MM = Missing Value Source: NWS Daily Summary

Daily Weather History Graph

Daily Weather History Graph

Search for Another Location

Airport:

Trip Planner

Search our weather history database for the weather conditions in past years. The results will help you decide how hot, cold, wet, or windy it might be!

Date:

Astronomy

Nov. 04, 2013 Rise Set
Actual Time 7:10 AM EST 5:23 PM EST
Civil Twilight 6:41 AM EST 5:53 PM EST
Nautical Twilight 6:07 AM EST 6:26 PM EST
Astronomical Twilight 5:35 AM EST 6:58 PM EST
Moon 8:20 AM EST (11/4) 6:26 PM EST (11/4)
Length of Visible Light 11h 12m
Length of Day
10h 13m
New Moon, 2% of the Moon is Illuminated
Nov 4
New Moon
Nov 10
First Quarter
Nov 17
Full
Nov 25
Last Quarter
Dec 2
New

Hourly Weather History & Observations

Time (EST) Temp. Windchill Dew Point Humidity Pressure Visibility Wind Dir Wind Speed Gust Speed Precip Events Conditions
12:15 AM 42.8 °F 38.6 °F 33.8 °F 70% 30.43 in 10.0 mi ESE 6.9 mph - N/A   Clear
12:35 AM 42.8 °F 37.0 °F 35.6 °F 76% 30.43 in 10.0 mi ESE 10.4 mph - N/A   Scattered Clouds
12:55 AM 42.8 °F 37.5 °F 35.6 °F 76% 30.43 in 10.0 mi ESE 9.2 mph - N/A   Mostly Cloudy
1:16 AM 42.8 °F 37.5 °F 35.6 °F 76% 30.43 in 10.0 mi East 9.2 mph - N/A   Scattered Clouds
1:36 AM 42.8 °F 37.0 °F 35.6 °F 76% 30.43 in 10.0 mi ESE 10.4 mph - N/A   Scattered Clouds
1:56 AM 42.8 °F 37.5 °F 35.6 °F 76% 30.43 in 10.0 mi ESE 9.2 mph - N/A   Clear
2:16 AM 42.8 °F 36.6 °F 35.6 °F 76% 30.43 in 10.0 mi ESE 11.5 mph - N/A   Scattered Clouds
2:36 AM 42.8 °F 36.6 °F 35.6 °F 76% 30.44 in 10.0 mi ESE 11.5 mph - N/A   Scattered Clouds
2:56 AM 41.0 °F 34.7 °F 35.6 °F 81% 30.44 in 10.0 mi SE 10.4 mph - N/A   Clear
3:11 AM 41.0 °F 36.4 °F 33.8 °F 76% 30.44 in 10.0 mi SE 6.9 mph - N/A   Clear
3:33 AM 41.0 °F 34.7 °F 32.0 °F 70% 30.45 in 10.0 mi ESE 10.4 mph 17.3 mph N/A   Clear
3:53 AM 41.0 °F 35.2 °F 30.2 °F 65% 30.43 in 10.0 mi ESE 9.2 mph - N/A   Clear
4:16 AM 39.2 °F 34.2 °F 30.2 °F 70% 30.44 in 10.0 mi ESE 6.9 mph - N/A   Clear
4:36 AM 39.2 °F 34.2 °F 30.2 °F 70% 30.45 in 10.0 mi SE 6.9 mph - N/A   Clear
4:56 AM 39.2 °F 33.6 °F 30.2 °F 70% 30.44 in 10.0 mi ESE 8.1 mph - N/A   Clear
5:16 AM 39.2 °F 34.2 °F 30.2 °F 70% 30.45 in 10.0 mi ESE 6.9 mph - N/A   Clear
5:36 AM 39.2 °F 33.6 °F 30.2 °F 70% 30.45 in 10.0 mi ESE 8.1 mph - N/A   Clear
5:56 AM 39.2 °F 34.2 °F 32.0 °F 75% 30.46 in 10.0 mi ESE 6.9 mph - N/A   Clear
6:16 AM 39.2 °F 34.2 °F 32.0 °F 75% 30.45 in 10.0 mi SE 6.9 mph - N/A   Clear
6:36 AM 39.2 °F 35.0 °F 32.0 °F 75% 30.44 in 10.0 mi SE 5.8 mph - N/A   Clear
6:57 AM 39.2 °F 35.0 °F 30.2 °F 70% 30.45 in 10.0 mi SE 5.8 mph - N/A   Clear
7:17 AM 39.2 °F 34.2 °F 30.2 °F 70% 30.44 in 10.0 mi SE 6.9 mph - N/A   Clear
7:32 AM 39.2 °F 34.2 °F 30.2 °F 70% 30.45 in 10.0 mi SE 6.9 mph - N/A   Clear
7:52 AM 39.2 °F 33.0 °F 30.2 °F 70% 30.45 in 10.0 mi SE 9.2 mph - N/A   Clear
8:12 AM 41.0 °F 36.4 °F 30.2 °F 65% 30.46 in 10.0 mi SE 6.9 mph - N/A   Clear
8:32 AM 41.0 °F 36.4 °F 30.2 °F 65% 30.45 in 10.0 mi SE 6.9 mph - N/A   Clear
8:52 AM 41.0 °F 35.8 °F 30.2 °F 65% 30.45 in 10.0 mi SE 8.1 mph - N/A   Clear
9:12 AM 41.0 °F 34.3 °F 28.4 °F 61% 30.44 in 10.0 mi SE 11.5 mph - N/A   Clear
9:32 AM 42.8 °F 37.5 °F 28.4 °F 57% 30.45 in 10.0 mi SE 9.2 mph - N/A   Clear
9:52 AM 42.8 °F 36.2 °F 28.4 °F 57% 30.44 in 10.0 mi SE 12.7 mph 16.1 mph N/A   Clear
10:12 AM 44.6 °F 38.8 °F 28.4 °F 53% 30.44 in 10.0 mi SE 11.5 mph - N/A   Clear
10:32 AM 44.6 °F 38.8 °F 28.4 °F 53% 30.43 in 10.0 mi SE 11.5 mph 16.1 mph N/A   Clear
10:52 AM 44.6 °F 38.1 °F 26.6 °F 49% 30.44 in 10.0 mi SE 13.8 mph - N/A   Clear
11:12 AM 46.4 °F 41.5 °F 26.6 °F 46% 30.45 in 10.0 mi SE 10.4 mph - N/A   Clear
11:33 AM 46.4 °F 41.9 °F 28.4 °F 50% 30.44 in 10.0 mi SE 9.2 mph - N/A   Clear
11:53 AM 46.4 °F 41.5 °F 28.4 °F 50% 30.43 in 10.0 mi ESE 10.4 mph - N/A   Clear
12:13 PM 46.4 °F 41.1 °F 24.8 °F 43% 30.41 in 10.0 mi ESE 11.5 mph 18.4 mph N/A   Clear
12:33 PM 46.4 °F 41.1 °F 26.6 °F 46% 30.40 in 10.0 mi ESE 11.5 mph - N/A   Clear
12:53 PM 46.4 °F 41.9 °F 28.4 °F 50% 30.38 in 10.0 mi ESE 9.2 mph - N/A   Clear
1:13 PM 46.4 °F 40.7 °F 30.2 °F 53% 30.38 in 10.0 mi ESE 12.7 mph 16.1 mph N/A   Clear
1:33 PM 46.4 °F 41.5 °F 30.2 °F 53% 30.38 in 10.0 mi ESE 10.4 mph - N/A   Clear
1:54 PM 46.4 °F 41.5 °F 30.2 °F 53% 30.36 in 10.0 mi ESE 10.4 mph - N/A   Clear
2:14 PM 46.4 °F 41.5 °F 30.2 °F 53% 30.37 in 10.0 mi ESE 10.4 mph - N/A   Clear
2:34 PM 46.4 °F 41.1 °F 30.2 °F 53% 30.35 in 10.0 mi ESE 11.5 mph - N/A   Clear
2:54 PM 46.4 °F 40.7 °F 30.2 °F 53% 30.34 in 10.0 mi East 12.7 mph 18.4 mph N/A   Clear
3:14 PM 46.4 °F 41.9 °F 30.2 °F 53% 30.34 in 10.0 mi ESE 9.2 mph - N/A   Clear
3:34 PM 46.4 °F 41.5 °F 30.2 °F 53% 30.34 in 10.0 mi East 10.4 mph - N/A   Clear
3:54 PM 46.4 °F 41.5 °F 30.2 °F 53% 30.34 in 10.0 mi ESE 10.4 mph 16.1 mph N/A   Clear
4:14 PM 46.4 °F 41.1 °F 32.0 °F 57% 30.34 in 10.0 mi ESE 11.5 mph - N/A   Clear
4:34 PM 46.4 °F 42.9 °F 32.0 °F 57% 30.34 in 10.0 mi ESE 6.9 mph - N/A   Clear
4:54 PM 46.4 °F 42.4 °F 32.0 °F 57% 30.33 in 10.0 mi ESE 8.1 mph - N/A   Clear
5:15 PM 46.4 °F 44.3 °F 30.2 °F 53% 30.33 in 10.0 mi ESE 4.6 mph - N/A   Clear
5:35 PM 46.4 °F 43.5 °F 30.2 °F 53% 30.33 in 10.0 mi ESE 5.8 mph - N/A   Clear
5:55 PM 46.4 °F 42.9 °F 30.2 °F 53% 30.32 in 10.0 mi ESE 6.9 mph - N/A   Clear
6:15 PM 46.4 °F 43.5 °F 30.2 °F 53% 30.32 in 10.0 mi SE 5.8 mph - N/A   Clear
6:35 PM 48.2 °F - 30.2 °F 50% 30.33 in 10.0 mi SE 9.2 mph - N/A   Clear
6:55 PM 46.4 °F 42.4 °F 30.2 °F 53% 30.32 in 10.0 mi SE 8.1 mph - N/A   Clear
7:15 PM 48.2 °F - 30.2 °F 50% 30.31 in 10.0 mi SE 9.2 mph - N/A   Clear
7:35 PM 46.4 °F 43.5 °F 33.8 °F 62% 30.32 in 10.0 mi SE 5.8 mph - N/A   Clear
7:55 PM 46.4 °F 41.1 °F 33.8 °F 62% 30.30 in 10.0 mi SE 11.5 mph - N/A   Clear
8:15 PM 46.4 °F 41.5 °F 35.6 °F 66% 30.31 in 10.0 mi SE 10.4 mph - N/A   Clear
8:35 PM 46.4 °F 42.4 °F 35.6 °F 66% 30.31 in 10.0 mi SSE 8.1 mph - N/A   Clear
8:55 PM 46.4 °F 41.9 °F 33.8 °F 62% 30.31 in 10.0 mi SE 9.2 mph - N/A   Clear
9:16 PM 46.4 °F 42.9 °F 35.6 °F 66% 30.31 in 10.0 mi SSE 6.9 mph - N/A   Clear
9:36 PM 46.4 °F 42.9 °F 33.8 °F 62% 30.31 in 10.0 mi SSE 6.9 mph - N/A   Clear
9:56 PM 46.4 °F 42.9 °F 33.8 °F 62% 30.31 in 10.0 mi South 6.9 mph - N/A   Clear
10:16 PM 44.6 °F 40.7 °F 33.8 °F 66% 30.31 in 10.0 mi SSE 6.9 mph - N/A   Clear
10:36 PM 44.6 °F 42.2 °F 35.6 °F 71% 30.31 in 10.0 mi SSE 4.6 mph - N/A   Clear
10:56 PM 42.8 °F 40.1 °F 35.6 °F 76% 30.30 in 10.0 mi SSE 4.6 mph - N/A   Clear
11:17 PM 42.8 °F 40.1 °F 35.6 °F 76% 30.30 in 10.0 mi SSE 4.6 mph - N/A   Clear
11:32 PM 42.8 °F 41.1 °F 35.6 °F 76% 30.30 in 10.0 mi South 3.5 mph - N/A   Clear
11:52 PM 42.8 °F - 35.6 °F 76% 30.31 in 10.0 mi Calm Calm - N/A   Clear